Location: Unspecified
(41.5000°N, 0.0000°E)
Time: 18:10:50
(UTC+00:00)

Courier 1B Rocket - Pass Details

Date: 01 July 2019
Orbit: 920 x 1202 km, 28.2° (Epoch: 15 July)

Event Time Altitude Azimuth Distance (km) Brightness Sun altitude
Rises 03:59:55 0° 256° (WSW) 4,006 - -5.4°
Exits shadow 04:01:19 - 252° (WSW) 3,586 7.3 -5.2°
Reaches altitude 10° 04:03:23 10° 243° (WSW) 3,002 6.9 -4.9°
Maximum altitude 04:08:59 24° 193° (SSW) 2,086 6.3 -4.0°
Drops below altitude 10° 04:14:19 10° 143° (SE) 2,837 7.5 -3.2°
Sets 04:17:29 0° 130° (SE) 3,739 8.3 -2.7°
